Preview of NWS' New Version of Forecast
This preview is not operational and should not be used for support decisions.

Regional Weather Roundup (RWR)

Issued by National Weather Service (NWS)

                            
000
ASUS43 KLSX 250757
RWRMO 

WEATHER SUMMARY FOR MISSOURI
NATIONAL WEATHER SERVICE SPRINGFIELD MO
300 AM CDT MON MAR 25 2019

NOTE: "FAIR" INDICATES FEW OR NO CLOUDS BELOW 12,000 FEET WITH NO
       SIGNIFICANT WEATHER AND/OR OBSTRUCTIONS TO VISIBILITY.
       CURRENT SKY AND/OR WEATHER CONDITIONS ARE NOT AVAILABLE FOR
       CHILLICOTHE AND FARMINGTON.

MOZ001>031-035>038-043-044-053-054-250900-
...NORTHERN AND WESTERN MISSOURI...
  
CITY           SKY/WX    TMP DP  RH WIND       PRES   REMARKS
KANSAS CTY INT CLOUDY    47  45  93 N12       30.13R FOG              
LEE'S SUMMIT   CLOUDY    49  45  86 N12       30.12R                  
ST JOSEPH        N/A    N/A N/A N/A MISG      30.15R                  
CHILLICOTHE      N/A     49  46  90 VRB6      30.12R                  
     
$$
MOZ066>068-077>081-088>096-101>105-250900-
...SOUTHWEST MISSOURI...
  
CITY           SKY/WX    TMP DP  RH WIND       PRES   REMARKS
SPRINGFIELD    CLOUDY    48  43  82 NW8       30.04S                  
JOPLIN         PTCLDY    45  43  93 NW5       30.09S                  
               
$$
MOZ032>034-039>042-045>050-055>058-069>072-250900-
...CENTRAL MISSOURI...  
  
CITY           SKY/WX    TMP DP  RH WIND       PRES   REMARKS
COLUMBIA       NOT AVBL                                               
JEFFERSON CITY CLOUDY    53  47  79 N10       30.03F                  
ROLLA          CLOUDY    51  48  89 N16G23    30.00S                  
SEDALIA        CLOUDY    50  49  96 N12       30.07S                  
WARRENSBURG    CLOUDY    48  46  93 NW8       30.09S                  
               
$$
MOZ051-052-059>065-250900-
...EAST CENTRAL MISSOURI...
  
CITY           SKY/WX    TMP DP  RH WIND       PRES   REMARKS
ST LOUIS INTL  LGT RAIN  52  50  93 N13G18    29.98S FOG              
SPIRIT OF STL  LGT RAIN  52  50  93 NW8       29.98S                  
                   
$$
MOZ072>076-082>087-097>100-106>115-250900-
...SOUTH CENTRAL AND SOUTHEAST MISSOURI...
  
CITY           SKY/WX    TMP DP  RH WIND       PRES   REMARKS
CAPE GIRARDEAU FOG       52  51  97 W7        29.92S VSB 1            
POPLAR BLUFF   FAIR      56  56 100 W7        29.94S                  
WEST PLAINS    CLEAR     47  42  83 NW6       30.00F                  
                                       
$$